When you browse on this site, cookies collect data to enhance your experience and personalize the content and advertising you see.
Visit our Privacy Policy to learn more. By continuing to use the site, you agree to this use of cookies and data.
  • In Hungary
  • List of Countries
  • For 7 days
  • Water Temperature
  • Weather Map
  • News
  • Weather Widgets
  • user-avatar
    Login

    Hourly Weather Taif

    Today, 22 November, Friday

    Time Temperature Precipitation Wind Pressure Humidity
    00:00 +16°C° 0 mm 3 mps 622 mmHg 53%
    01:00 +16°C° 0 mm 3 mps 621 mmHg 55%
    02:00 +16°C° 0 mm 2 mps 621 mmHg 57%
    03:00 +16°C° 0 mm 2 mps 620 mmHg 61%
    04:00 +16°C° 0 mm 2 mps 621 mmHg 63%
    05:00 +16°C° 0 mm 2 mps 621 mmHg 65%
    06:00 +16°C° 0 mm 1 mps 622 mmHg 67%
    07:00 +17°C° 0 mm 2 mps 622 mmHg 65%
    08:00 +17°C° 0 mm 2 mps 622 mmHg 62%
    09:00 +18°C° 0 mm 2 mps 623 mmHg 62%
    10:00 +19°C° 0.1 mm 3 mps 623 mmHg 59%
    11:00 +20°C° 0.1 mm 3 mps 623 mmHg 57%
    12:00 +21°C° 0.1 mm 3 mps 624 mmHg 55%
    13:00 +21°C° 0.3 mm 3 mps 623 mmHg 57%
    14:00 +21°C° 0.3 mm 3 mps 622 mmHg 58%
    15:00 +20°C° 0.3 mm 3 mps 621 mmHg 59%
    16:00 +20°C° 0.4 mm 3 mps 621 mmHg 63%
    17:00 +19°C° 0.4 mm 2 mps 621 mmHg 67%
    18:00 +19°C° 0.4 mm 2 mps 621 mmHg 70%
    19:00 +18°C° 0.4 mm 2 mps 622 mmHg 71%
    20:00 +19°C° 0.4 mm 1 mps 622 mmHg 71%
    21:00 +19°C° 0.4 mm 1 mps 622 mmHg 72%
    22:00 +19°C° 0.2 mm 1 mps 622 mmHg 73%
    23:00 +19°C° 0.2 mm 1 mps 622 mmHg 73%

    Tomorrow, 23 November, Saturday

    Time Temperature Precipitation Wind Pressure Humidity
    00:00 +19°C° 0.2 mm 1 mps 622 mmHg 74%
    01:00 +18°C° 0.2 mm 2 mps 622 mmHg 75%
    02:00 +17°C° 0.2 mm 2 mps 621 mmHg 75%
    03:00 +17°C° 0.2 mm 2 mps 621 mmHg 75%
    04:00 +17°C° 0.1 mm 2 mps 621 mmHg 77%
    05:00 +17°C° 0.1 mm 2 mps 621 mmHg 79%
    06:00 +16°C° 0.1 mm 2 mps 622 mmHg 81%
    07:00 +17°C° 0.1 mm 2 mps 622 mmHg 79%
    08:00 +17°C° 0.1 mm 2 mps 622 mmHg 77%
    09:00 +18°C° 0.1 mm 2 mps 622 mmHg 74%
    10:00 +19°C° 0.1 mm 3 mps 622 mmHg 72%
    11:00 +19°C° 0.1 mm 3 mps 623 mmHg 70%
    12:00 +20°C° 0.1 mm 4 mps 623 mmHg 67%
    13:00 +20°C° 0.3 mm 4 mps 622 mmHg 66%
    14:00 +20°C° 0.3 mm 4 mps 622 mmHg 66%
    15:00 +20°C° 0.3 mm 4 mps 621 mmHg 65%
    16:00 +20°C° 0.3 mm 3 mps 621 mmHg 69%
    17:00 +19°C° 0.3 mm 3 mps 621 mmHg 73%
    18:00 +18°C° 0.3 mm 3 mps 621 mmHg 77%
    19:00 +18°C° 0.2 mm 3 mps 621 mmHg 78%
    20:00 +18°C° 0.2 mm 2 mps 622 mmHg 80%
    21:00 +17°C° 0.2 mm 2 mps 622 mmHg 81%
    22:00 +17°C° 0 mm 2 mps 622 mmHg 81%
    23:00 +17°C° 0 mm 2 mps 621 mmHg 81%

    Day after tomorrow, 24 November, Sunday

    Time Temperature Precipitation Wind Pressure Humidity
    00:00 +17°C° 0 mm 2 mps 621 mmHg 81%
    01:00 +17°C° 0.1 mm 2 mps 621 mmHg 81%
    02:00 +17°C° 0.1 mm 2 mps 621 mmHg 81%
    03:00 +17°C° 0.1 mm 2 mps 621 mmHg 81%
    04:00 +17°C° 0.2 mm 2 mps 621 mmHg 81%
    05:00 +17°C° 0.2 mm 2 mps 621 mmHg 82%
    06:00 +17°C° 0.2 mm 2 mps 621 mmHg 82%
    07:00 +17°C° 0.2 mm 3 mps 622 mmHg 80%
    08:00 +18°C° 0.2 mm 3 mps 622 mmHg 78%
    09:00 +18°C° 0.2 mm 3 mps 623 mmHg 76%
    10:00 +18°C° 0.2 mm 3 mps 622 mmHg 75%
    11:00 +19°C° 0.2 mm 4 mps 622 mmHg 74%
    12:00 +19°C° 0.2 mm 4 mps 622 mmHg 73%
    13:00 +19°C° 0.2 mm 4 mps 622 mmHg 73%
    14:00 +19°C° 0.2 mm 4 mps 622 mmHg 72%
    15:00 +20°C° 0.2 mm 4 mps 622 mmHg 71%
    16:00 +19°C° 0.2 mm 4 mps 621 mmHg 75%
    17:00 +18°C° 0.2 mm 4 mps 621 mmHg 78%
    18:00 +18°C° 0.2 mm 4 mps 621 mmHg 82%
    19:00 +18°C° 0.1 mm 3 mps 622 mmHg 83%
    20:00 +17°C° 0.1 mm 3 mps 622 mmHg 83%
    21:00 +17°C° 0.1 mm 3 mps 622 mmHg 84%
    22:00 +17°C° 0.1 mm 2 mps 622 mmHg 84%
    23:00 +17°C° 0.1 mm 2 mps 622 mmHg 84%

    25 November, Monday

    Time Temperature Precipitation Wind Pressure Humidity
    00:00 +17°C° 0.1 mm 2 mps 622 mmHg 84%
    01:00 +17°C° 0 mm 2 mps 621 mmHg 82%
    02:00 +17°C° 0 mm 2 mps 621 mmHg 81%
    03:00 +17°C° 0 mm 2 mps 621 mmHg 79%
    04:00 +16°C° 0 mm 2 mps 621 mmHg 79%
    05:00 +16°C° 0 mm 1 mps 621 mmHg 79%
    06:00 +16°C° 0 mm 1 mps 621 mmHg 78%
    07:00 +17°C° 0 mm 2 mps 622 mmHg 74%
    08:00 +18°C° 0 mm 2 mps 622 mmHg 70%
    09:00 +18°C° 0 mm 3 mps 623 mmHg 66%
    10:00 +19°C° 0 mm 3 mps 623 mmHg 63%
    11:00 +20°C° 0 mm 3 mps 623 mmHg 60%
    12:00 +21°C° 0 mm 4 mps 623 mmHg 57%
    13:00 +21°C° 0 mm 4 mps 623 mmHg 58%
    14:00 +21°C° 0 mm 4 mps 622 mmHg 58%
    15:00 +21°C° 0 mm 4 mps 622 mmHg 59%
    16:00 +20°C° 0.1 mm 4 mps 622 mmHg 63%
    17:00 +20°C° 0.1 mm 3 mps 622 mmHg 66%
    18:00 +19°C° 0.1 mm 3 mps 622 mmHg 70%
    19:00 +19°C° 0 mm 2 mps 622 mmHg 72%
    20:00 +18°C° 0 mm 2 mps 622 mmHg 74%
    21:00 +19°C° 0 mm 1 mps 622 mmHg 75%
    22:00 +19°C° 0 mm 1 mps 622 mmHg 74%
    23:00 +19°C° 0 mm 1 mps 622 mmHg 74%

    26 November, Tuesday

    Time Temperature Precipitation Wind Pressure Humidity
    00:00 +19°C° 0 mm 1 mps 622 mmHg 73%
    01:00 +19°C° 0 mm 1 mps 622 mmHg 72%
    02:00 +18°C° 0 mm 1 mps 622 mmHg 72%
    03:00 +17°C° 0 mm 2 mps 622 mmHg 72%
    04:00 +17°C° 0 mm 2 mps 622 mmHg 73%
    05:00 +18°C° 0 mm 1 mps 622 mmHg 74%
    06:00 +18°C° 0 mm 1 mps 621 mmHg 74%
    07:00 +18°C° 0 mm 1 mps 622 mmHg 70%
    08:00 +18°C° 0 mm 2 mps 623 mmHg 65%
    09:00 +19°C° 0 mm 2 mps 624 mmHg 61%
    10:00 +20°C° 0 mm 2 mps 624 mmHg 55%
    11:00 +21°C° 0 mm 2 mps 624 mmHg 49%
    12:00 +22°C° 0 mm 3 mps 624 mmHg 44%
    13:00 +24°C° 0 mm 3 mps 624 mmHg 43%
    14:00 +24°C° 0 mm 3 mps 623 mmHg 41%
    15:00 +24°C° 0 mm 3 mps 623 mmHg 40%
    16:00 +22°C° 0 mm 3 mps 623 mmHg 44%
    17:00 +22°C° 0 mm 3 mps 622 mmHg 47%
    18:00 +21°C° 0 mm 3 mps 622 mmHg 51%
    19:00 +20°C° 0 mm 2 mps 622 mmHg 55%
    20:00 +20°C° 0 mm 2 mps 622 mmHg 59%
    21:00 +19°C° 0 mm 2 mps 623 mmHg 64%
    22:00 +20°C° 0 mm 1 mps 623 mmHg 64%
    23:00 +20°C° 0 mm 1 mps 622 mmHg 64%

    27 November, Wednesday

    Time Temperature Precipitation Wind Pressure Humidity
    00:00 +20°C° 0 mm 1 mps 622 mmHg 64%
    01:00 +19°C° 0 mm 1 mps 622 mmHg 64%
    02:00 +19°C° 0 mm 1 mps 622 mmHg 64%
    03:00 +19°C° 0 mm 1 mps 622 mmHg 64%
    04:00 +19°C° 0 mm 1 mps 621 mmHg 64%
    05:00 +18°C° 0 mm 1 mps 621 mmHg 64%
    06:00 +18°C° 0 mm 1 mps 621 mmHg 63%
    07:00 +19°C° 0 mm 1 mps 622 mmHg 59%
    08:00 +19°C° 0 mm 2 mps 623 mmHg 55%
    09:00 +20°C° 0 mm 2 mps 624 mmHg 51%
    10:00 +21°C° 0 mm 3 mps 624 mmHg 50%
    11:00 +21°C° 0 mm 3 mps 624 mmHg 48%
    12:00 +22°C° 0 mm 4 mps 624 mmHg 46%
    13:00 +22°C° 0.1 mm 4 mps 623 mmHg 47%
    14:00 +22°C° 0.1 mm 4 mps 623 mmHg 47%
    15:00 +22°C° 0.1 mm 4 mps 622 mmHg 48%
    16:00 +21°C° 0.2 mm 4 mps 622 mmHg 52%
    17:00 +21°C° 0.2 mm 4 mps 622 mmHg 56%
    18:00 +20°C° 0.2 mm 3 mps 622 mmHg 60%
    19:00 +19°C° 0.1 mm 3 mps 622 mmHg 63%
    20:00 +19°C° 0.1 mm 2 mps 622 mmHg 66%
    21:00 +19°C° 0.1 mm 2 mps 622 mmHg 70%
    22:00 +18°C° 0 mm 2 mps 622 mmHg 70%
    23:00 +19°C° 0 mm 1 mps 622 mmHg 70%
    Show more